2024-149AU

Last updated on Mon Sep 16 2024 00:02:03 GMT+0000 (Coordinated Universal Time)

1 60510U 24149AU 24259.15485871 .00018980 00000+0 90662-3 0 9994 2 60510 97.4382 334.2623 0006260 52.5770 307.6033 15.19061744 4453
UTC large
Height (km)
Speed (km/s)
/
Latitude / Longitude
Inclination (degrees)
Orbital Period (minutes)
Azimuth
Elevation
Range (km)
Doppler Factor

Next 0 passes for location: London (51.5072 / 0.1276)

Sorry there are no passes over London.